sat.trackr.live / text

‹ back to catalog

STARLINK-37899

NORAD 69952 · 2026-157K

PAYLOAD ACTIVE UNKNOWN

§ Identity

Operator
Country
US
Launch date
2026-07-09
Launch site
AFETR
Launch vehicle
Mass (kg)
RCS (m²)

Purposes: comms

External: N2YO · Heavens-Above · Gunter

§ Orbital elements

Epoch: 2026-09-19T17:33:38.545632Z

Period
93.85 min
Inclination
53.1605°
Eccentricity
0.0001400
Mean motion
15.34407779 rev/d
Perigee alt
461.7 km
Apogee alt
463.6 km
Semi-major
6,840.8 km
B*
5.1780e-4
RAAN
337.4059°
Arg perigee
56.2109°
Mean anomaly
303.9027°
Rev number
1,125

§ Raw data

STARLINK-378991 69952U 26157K   26262.73169613  .00017163  00000+0  51780-3 0  99972 69952  53.1605 337.4059 0001400  56.2109 303.9027 15.34407779 11252

JSON: /api/v1/satellites/69952 · /tle

For live sub-satellite position, see the globe view (requires WebGL).

§ Visibility from observer

Set your observer location to see the next 7 days of passes ≥ 10°. The values pass through the URL so the page stays shareable.

No JS? Fill the form by hand. The geolocation button needs JavaScript.